Home > Weather > Mumbai > Past weeks

Flag for India Past Weather in Mumbai, Maharashtra, India — Yesterday and Last 2 Weeks

Now
91 °F

Scattered clouds.


Feels Like: 105 °F
Forecast: 87 / 89 °F
Wind: 15 mph from Southwest

Location: Mumbai / Santacruz

Current Time: May 24, 2016 at 1:33:29 PM

Latest Report: May 24, 2016 at 1:00 PM


Visibility: 4 mi

Pressure: 29.77 "Hg

Humidity: 63%

Dew Point: 77 °F

Location of MumbaiLocation

Past Weather in Mumbai — Graph

°F

Mumbai Temperature Yesterday

Maximum temperature yesterday: 93 °F (at 2:30 PM)
Minimum temperature yesterday: 86 °F (at 3:00 AM)
Average temperature yesterday: 89 °F

High & Low Weather Summary for the Past Weeks

 TemperatureHumidityPressure
High93 °F (May 19, 12:30 PM)84% (May 9, 11:00 PM)29.83 "Hg (May 9, 11:00 PM)
Low84 °F (May 9, 9:00 PM)52% (May 10, 3:00 PM)29.53 "Hg (May 18, 4:30 PM)
Average88 °F74%29.72 "Hg
* Reported May 9 11:30 AM — May 24 12:00 PM, Mumbai, Weather by CustomWeather, © 2016

Note: Actual official high and low records may vary slightly from our data, if they occured in-between our weather recording intervals... More about our weather records

Advertising

Mumbai Weather History for the Previous 24 Hours

Scroll right to see more
 ConditionsComfort  
Time TempWeatherWind HumidityBarometerVisibility
12:00 PM
Tue, May 24
91 °FScattered clouds.14 mph63%29.77 "Hg4 mi
11:30 AM91 °FScattered clouds.12 mph59%29.80 "Hg3 mi
11:00 AM93 °FScattered clouds.13 mph59%29.80 "Hg3 mi
10:30 AM91 °FScattered clouds.12 mph63%29.80 "Hg2 mi
10:00 AM90 °FScattered clouds.12 mph67%29.80 "Hg2 mi
9:30 AM90 °FScattered clouds.13 mph71%29.80 "Hg2 mi
9:00 AM90 °FScattered clouds.9 mph71%29.80 "Hg2 mi
8:30 AM90 °FScattered clouds.10 mph71%29.80 "Hg2 mi
8:00 AM88 °FScattered clouds.12 mph75%29.80 "Hg3 mi
7:30 AM88 °FScattered clouds.10 mph75%29.80 "Hg3 mi
7:00 AM88 °FScattered clouds.7 mph75%29.80 "Hg3 mi
6:30 AM86 °FPassing clouds.8 mph79%29.77 "Hg2 mi
6:00 AM86 °FPassing clouds.8 mph79%29.77 "Hg2 mi
5:30 AM86 °FPassing clouds.9 mph79%29.77 "Hg2 mi
4:30 AM86 °FPassing clouds.9 mph79%29.74 "Hg2 mi
4:00 AM86 °FPassing clouds.9 mph79%29.74 "Hg2 mi
3:30 AM86 °FPassing clouds.12 mph79%29.74 "Hg2 mi
3:00 AM86 °FPassing clouds.8 mph79%29.74 "Hg2 mi
2:30 AM86 °FPassing clouds.10 mph79%29.74 "Hg2 mi
2:00 AM88 °FPassing clouds.12 mph75%29.77 "Hg2 mi
1:30 AM88 °FPassing clouds.10 mph75%29.77 "Hg2 mi
1:00 AM88 °FPassing clouds.10 mph75%29.77 "Hg2 mi
12:30 AM88 °FPassing clouds.9 mph75%29.80 "Hg2 mi
12:00 AM88 °FPassing clouds.10 mph75%29.80 "Hg2 mi
11:30 PM
Mon, May 23
88 °FPassing clouds.9 mph75%29.80 "Hg2 mi
11:00 PM88 °FPassing clouds.10 mph75%29.80 "Hg2 mi
10:30 PM88 °FPassing clouds.9 mph75%29.80 "Hg2 mi
10:00 PM88 °FPassing clouds.13 mph75%29.80 "Hg2 mi
9:30 PM88 °FPassing clouds.13 mph75%29.80 "Hg2 mi
9:00 PM88 °FPassing clouds.13 mph75%29.80 "Hg2 mi
8:30 PM88 °FPassing clouds.12 mph75%29.77 "Hg2 mi
8:00 PM88 °FPassing clouds.12 mph79%29.77 "Hg2 mi
7:30 PM88 °FScattered clouds.12 mph75%29.77 "Hg2 mi
7:00 PM88 °FScattered clouds.9 mph75%29.77 "Hg3 mi
6:30 PM90 °FScattered clouds.12 mph71%29.74 "Hg3 mi
6:00 PM90 °FScattered clouds.8 mph71%29.74 "Hg3 mi
5:30 PM90 °FScattered clouds.12 mph71%29.74 "Hg3 mi
5:00 PM90 °FScattered clouds.10 mph71%29.74 "Hg4 mi
4:30 PM91 °FScattered clouds.14 mph63%29.74 "Hg4 mi
4:00 PM91 °FScattered clouds.12 mph63%29.74 "Hg4 mi
3:30 PM91 °FScattered clouds.8 mph67%29.77 "Hg4 mi
3:00 PM91 °FScattered clouds.8 mph63%29.77 "Hg4 mi
2:30 PM93 °FScattered clouds.8 mph63%29.77 "Hg4 mi
2:00 PM91 °FScattered clouds.12 mph67%29.77 "Hg4 mi
1:30 PM91 °FScattered clouds.14 mph67%29.80 "Hg4 mi
1:00 PM91 °FScattered clouds.14 mph67%29.80 "Hg4 mi
Weather by CustomWeather, © 2016

See weather overviewHow to use our weather pages